Flag for Austria Weather past 2 weeks in Linz, Upper Austria, Austria

Now
36 °F

Broken clouds.


Feels Like: 30 °F
Forecast: 22 / 35 °F
Wind: 7 mph from Southeast

Location: Linz / Hoersching-Flughafen

Current Time: Jan 29, 2015 at 4:01:02 PM

Latest Report: Jan 29, 2015 at 3:20 PM


Visibility: N/A

Pressure: 29.39 "Hg

Humidity: 81%

Dew point: 30 °F

Location of LinzLocation

Historic Weather in Linz — Graph

°F

Linz temperature yesterday

Maximum temperature yesterday: 39 °F (at 1:20 PM)
Minimum temperature yesterday: 28 °F (at 9:20 PM)
Average temperature yesterday: 34 °F

Past Weeks' High & Low Weather Summary

 TemperatureHumidityPressure
High43 °F (Jan 14, 2:50 PM)100% (Jan 16, 3:20 AM)30.33 "Hg (Jan 16, 3:20 AM)
Low27 °F (Jan 26, 8:50 PM)65% (Jan 28, 1:50 PM)29.39 "Hg (Jan 29, 2:50 PM)
Average34 °F88%29.97 "Hg
* Reported Jan 14 2:20 PM — Jan 29 2:50 PM, Linz, Weather by CustomWeather, © 2014

Note: Actual official high and low records may vary slightly from our data, if they occured in-between our weather recording intervals... More about our weather records

Advertising

Linz weather history for previous 24 hours

 ConditionsComfort  
Time TempWeatherWind HumidityBarometerVisibility
2:50 PM
Jan 29
37 °FPartly sunny.3 mph70%29.39 "HgN/A
2:20 PM37 °FScattered clouds.1 mph75%29.42 "HgN/A
1:50 PM37 °FScattered clouds.2 mph70%29.42 "HgN/A
1:20 PM37 °FBroken clouds.2 mph75%29.47 "HgN/A
12:50 PM36 °FBroken clouds.5 mph81%29.47 "HgN/A
12:20 PM36 °FPartly sunny.3 mph81%29.50 "HgN/A
11:50 AM36 °FPartly sunny.7 mph75%29.53 "HgN/A
11:20 AM36 °FBroken clouds.7 mph75%29.53 "HgN/A
10:50 AM34 °FPartly sunny.10 mph87%29.53 "HgN/A
10:20 AM34 °FBroken clouds.7 mph93%29.53 "HgN/A
9:50 AM34 °FBroken clouds.9 mph93%29.56 "HgN/A
9:20 AM34 °FBroken clouds.8 mph93%29.53 "HgN/A
8:50 AM34 °FBroken clouds.8 mph93%29.53 "HgN/A
8:20 AM32 °FBroken clouds.3 mph93%29.53 "Hg5 mi
7:50 AM30 °FLight snow. Ice fog.1 mph100%29.53 "Hg2 mi
7:20 AM30 °FLight snow. Partly cloudy.2 mph100%29.53 "Hg3 mi
6:50 AM30 °FLight snow. Partly cloudy.2 mph100%29.53 "Hg2 mi
6:20 AM30 °FSnow. Passing clouds.2 mph100%29.53 "Hg1 mi
5:50 AM30 °FLight snow. Partly cloudy.3 mph100%29.50 "Hg2 mi
5:20 AM30 °FLight snow. Partly cloudy.5 mph100%29.53 "Hg2 mi
4:50 AM30 °FLight snow. Partly cloudy.5 mph100%29.53 "Hg2 mi
4:20 AM30 °FSnow. Partly cloudy.5 mph100%29.53 "Hg1 mi
3:50 AM30 °FSnow. Partly cloudy.5 mph100%29.53 "Hg2 mi
3:20 AM30 °FSnow. Passing clouds.3 mph100%29.53 "Hg2 mi
2:50 AM30 °FSnow. Passing clouds.3 mph93%29.56 "Hg1 mi
2:20 AM30 °FSleet. Passing clouds.3 mph93%29.56 "Hg1 mi
1:50 AM30 °FSnow. Passing clouds.1 mph93%29.56 "Hg2 mi
1:20 AM30 °FLight snow. Passing clouds.2 mph86%29.56 "HgN/A
12:50 AM30 °FPassing clouds.3 mph93%29.59 "HgN/A
12:20 AM30 °FOvercast.2 mph86%29.59 "HgN/A
11:50 PM
Jan 28
30 °FPassing clouds.6 mph86%29.59 "HgN/A
11:20 PM30 °FPassing clouds.5 mph86%29.62 "HgN/A
10:50 PM30 °FPartly cloudy.8 mph86%29.65 "HgN/A
10:20 PM30 °FPassing clouds.6 mph93%29.65 "HgN/A
9:50 PM30 °FPassing clouds.6 mph86%29.68 "HgN/A
9:20 PM28 °FClear.5 mph93%29.71 "Hg10 mi
8:50 PM30 °FClear.5 mph86%29.74 "Hg10 mi
8:20 PM30 °FClear.2 mph93%29.77 "Hg10 mi
7:50 PM30 °FClear.5 mph93%29.77 "Hg10 mi
7:20 PM32 °FPassing clouds.3 mph80%29.80 "HgN/A
6:50 PM32 °FPassing clouds.3 mph80%29.83 "HgN/A
6:20 PM32 °FClear.5 mph80%29.86 "Hg10 mi
5:50 PM34 °FClear.2 mph75%29.89 "Hg10 mi
5:20 PM34 °FPassing clouds.5 mph75%29.89 "HgN/A
4:50 PM36 °FPartly sunny.6 mph70%29.92 "HgN/A
4:20 PM37 °FPartly sunny.7 mph65%29.92 "HgN/A
Weather by CustomWeather, © 2014

See weather overviewHow to use our weather pages